Miscellaneous Local Product
Issued by NWS North Platte, NE

Home | Current Version | Previous Version | Text Only | Print | Product List | Glossary On
Versions: 1 2 3 4 5 6 7 8 9 10 11 12 13 14 15 16 17 18 19 20 21 22 23 24 25 26 27 28 29 30 31 32 33 34 35 36 37 38 39 40 41 42 43 44 45 46 47 48 49 50
000
AXUS43 KLBF 290910
MISLBF


WESTERN AND NORTH CENTRAL NEBRASKA HOURLY WEATHER ROUNDUP
NATIONAL WEATHER SERVICE NORTH PLATTE NE
400 AM CDT SAT AUG 29 2015

NOTE: "FAIR" INDICATES FEW OR NO CLOUDS BELOW 12,000 FEET WITH NO
SIGNIFICANT WEATHER AND/OR OBSTRUCTIONS TO VISIBILITY.

NOTE: STATIONS NOT REPORTING VARIABLES SUCH AS SKY/WEATHER OR
PRESSURE ARE PROVIDED BY THE NEBRASKA DEPARTMENT OF
ROADS...RAWS...AND APRS NETWORKS...AND ARE NOT UNDER
NATIONAL WEATHER SERVICE QUALITY CONTROL.

...OBSERVATIONS IN AND NEAR THE EASTERN PANHANDLE OF NEBRASKA...

CITY           SKY/WX    TMP DP  RH WIND       PRES   REMARKS
PINE RIDGE     CLEAR     60  50  69 W3        30.10S
CHADRON        CLEAR     53  48  83 W3        30.10S HAZE
ALLIANCE       CLEAR     50  46  86 W3        30.15S
SIDNEY         CLEAR     52  45  77 SW8       30.20S
CRESCENT LAKE    N/A     59  53  82 S3          N/A
BIG SPRINGS      N/A     56  54  92 CALM        N/A
$$

...OBSERVATIONS IN NORTH CENTRAL NEBRASKA...

CITY           SKY/WX    TMP DP  RH WIND       PRES   REMARKS
VALENTINE      CLEAR     57  56  96 SW5       30.06F FOG
THEDFORD       CLEAR     56  55  98 CALM      30.11S FOG
AINSWORTH      CLEAR     58  58  97 SW5       30.08S
O`NEILL        FOG       58  57  99 CALM      30.06R VSB 1/2
ORD            FOG       54  54 100 CALM      30.05S VSB 3/4
BROKEN BOW     CLEAR     56  54  93 CALM      30.08R
SPRINGVIEW       N/A     56  55  95 CALM        N/A
SARGENT          N/A     57  56  96 CALM        N/A
CHAMBERS         N/A     57  56  96 CALM        N/A
EWING            N/A     56  53  90 CALM        N/A
$$

...OBSERVATIONS IN SOUTHWEST NEBRASKA AND FAR NORTHEAST COLORADO...

CITY           SKY/WX    TMP DP  RH WIND       PRES   REMARKS
WRAY           FAIR      57  53  85 W5        30.17S
HOLYOKE        FAIR      55  52  88 W6        30.18S
IMPERIAL       CLEAR     60  57  89 W6        30.15S
OGALLALA       CLEAR     55  54  97 CALM      30.15S
NORTH PLATTE   MOCLDY    52  51  97 W5        30.11S FOG
MCCOOK         CLEAR     57  56  96 W5        30.11S
LEXINGTON      CLEAR     58  57  96 NW5       30.09S
PAXTON           N/A     59  57  92 CALM        N/A
BRADY            N/A     54  52  92 CALM        N/A
CALLAWAY         N/A     52  51  95 W3          N/A
$$

...OBSERVATIONS IN CENTRAL LINCOLN COUNTY AREA...

CITY           SKY/WX    TMP DP  RH WIND       PRES   REMARKS
N.P. AIRPORT   MOCLDY    52  51  97 W5        30.11S FOG
N.P. DOWNTOWN    N/A     58  56  95 CALM        N/A
$$

...SOME OBSERVATIONS FROM AROUND THE REGION...

CITY           SKY/WX    TMP DP  RH WIND       PRES   REMARKS
DENVER         PTCLDY    61  39  44 SW7       30.27F
LARAMIE        CLEAR     48  39  71 S7        30.37F
CHEYENNE       CLEAR     56  43  61 W3        30.31F
SCOTTSBLUFF    CLEAR     56  50  80 N3        30.17F
RAPID CITY     CLEAR     59  54  83 NW3       30.05F
PIERRE         CLEAR     62  61  96 CALM      29.97R
WINNER         FAIR      66  61  84 S9        30.02S
SIOUX FALLS    CLEAR     54  52  93 CALM      30.02S
OMAHA          CLOUDY    63  61  93 N9        29.99R
GRAND ISLAND   FOG       56  56 100 CALM      30.06R VSB 1/4
KANSAS CITY    CLOUDY    70  68  93 W5        29.93S
WICHITA        CLEAR     71  65  81 N8        29.98S
HAYS           CLEAR     61  52  72 NW8       30.07R
LIBERAL        PTCLDY    70  61  73 E6        30.12R
GOODLAND       CLEAR     58  55  90 W7        30.17S
$$



USA.gov is the U.S. government's official web portal to all federal, state and local government web resources and services.